Weather History for Key West NAF, FL

Change the Weather History Date:

Friday, March 15, 2013

  Actual Average Record
Temperature  
Mean Temperature 66 °F -  
Max Temperature 72 °F 78 °F 86 °F (1964)
Min Temperature 60 °F 69 °F 46 °F (2004)
Growing Degree Days 16 (Base 50)    
Moisture  
Dew Point 47 °F    
Average Humidity 53    
Maximum Humidity 70    
Minimum Humidity 38    
Precipitation  
Precipitation 0.00 in - - ()
Sea Level Pressure  
Sea Level Pressure 30.19 in    
Wind  
Wind Speed 9 mph (NNE)    
Max Wind Speed 18 mph    
Max Gust Speed 25 mph    
Visibility 10 miles    
Events      
Averages and records for this station are not official NWS values.
T = Trace of Precipitation, MM = Missing Value Source: NWS Daily Summary

Daily Weather History Graph

Daily Weather History Graph

Search for Another Location

Airport:

Trip Planner

Search our weather history database for the weather conditions in past years. The results will help you decide how hot, cold, wet, or windy it might be!

Date:

Astronomy

Mar. 15, 2013 Rise Set
Actual Time 7:35 AM EDT 7:35 PM EDT
Civil Twilight 7:12 AM EDT 7:58 PM EDT
Nautical Twilight 6:46 AM EDT 8:25 PM EDT
Astronomical Twilight 6:19 AM EDT 8:51 PM EDT
Moon 9:52 AM EDT (3/15) 11:18 PM EDT (3/15)
Length of Visible Light 12h 45m
Length of Day
12h 00m
Waxing Crescent, 15% of the Moon is Illuminated
Mar 15
Waxing Crescent
Mar 19
First Quarter
Mar 27
Full
Apr 3
Last Quarter
Apr 10
New

Hourly Weather History & Observations

Time (EDT) Temp. Dew Point Humidity Pressure Visibility Wind Dir Wind Speed Gust Speed Precip Events Conditions
12:53 AM 64.0 °F 50.0 °F 60% 30.19 in 10.0 mi NNE 8.1 mph - N/A   Clear
1:53 AM 63.0 °F 46.0 °F 54% 30.19 in 10.0 mi NE 5.8 mph - N/A   Clear
2:53 AM 61.0 °F 50.0 °F 67% 30.18 in 10.0 mi NE 5.8 mph - N/A   Clear
3:53 AM 62.1 °F 48.0 °F 60% 30.16 in 10.0 mi NNE 10.4 mph - N/A   Clear
4:53 AM 61.0 °F 48.9 °F 64% 30.17 in 10.0 mi NE 10.4 mph - N/A   Clear
5:53 AM 60.1 °F 48.0 °F 64% 30.18 in 10.0 mi NE 8.1 mph - N/A   Clear
6:53 AM 61.0 °F 45.0 °F 56% 30.20 in 10.0 mi NE 12.7 mph 19.6 mph N/A   Clear
7:53 AM 61.0 °F 46.0 °F 58% 30.22 in 10.0 mi NE 12.7 mph 18.4 mph N/A   Mostly Cloudy
8:53 AM 62.1 °F 42.1 °F 48% 30.24 in 10.0 mi NE 11.5 mph 19.6 mph N/A   Mostly Cloudy
9:53 AM 64.0 °F 44.1 °F 48% 30.25 in 10.0 mi NNE 18.4 mph 25.3 mph N/A   Mostly Cloudy
10:53 AM 64.9 °F 43.0 °F 45% 30.26 in 10.0 mi NE 15.0 mph 20.7 mph N/A   Mostly Cloudy
11:53 AM 66.9 °F 44.1 °F 44% 30.25 in 10.0 mi NNE 15.0 mph 18.4 mph N/A   Mostly Cloudy
12:53 PM 70.0 °F 45.0 °F 41% 30.24 in 10.0 mi NNE 10.4 mph - N/A   Mostly Cloudy
1:53 PM 70.0 °F 43.0 °F 38% 30.22 in 10.0 mi NNE 12.7 mph 17.3 mph N/A   Scattered Clouds
2:53 PM 71.1 °F 46.0 °F 41% 30.19 in 10.0 mi North 11.5 mph - N/A   Scattered Clouds
3:53 PM 71.1 °F 46.9 °F 42% 30.18 in 10.0 mi NNE 11.5 mph - N/A   Scattered Clouds
4:53 PM 70.0 °F 46.0 °F 42% 30.16 in 10.0 mi NNE 9.2 mph - N/A   Partly Cloudy
5:53 PM 70.0 °F 46.0 °F 42% 30.16 in 10.0 mi NE 8.1 mph - N/A   Clear
6:53 PM 68.0 °F 45.0 °F 43% 30.16 in 10.0 mi NNE 8.1 mph - N/A   Clear
7:53 PM 64.9 °F 46.9 °F 52% 30.16 in 10.0 mi NNE 5.8 mph - N/A   Clear
8:53 PM 64.0 °F 50.0 °F 60% 30.16 in 10.0 mi NE 4.6 mph - N/A   Clear
9:53 PM 64.9 °F 52.0 °F 63% 30.18 in 10.0 mi NNE 6.9 mph - N/A   Clear
10:53 PM 64.9 °F 54.0 °F 68% 30.19 in 10.0 mi NNE 4.6 mph - N/A   Clear
11:53 PM 64.9 °F 55.0 °F 70% 30.18 in 10.0 mi NNE 6.9 mph - N/A   Clear